Voltar ao catálogo

COSMOS 2346

AtivoMilitarPO
NORAD 24953·PAYLOAD·🇷🇺 Russia

Lançado Sep 23, 1997 de Plesetsk Cosmodrome

Loading…

Próximas Passagens (próximas 24 horas)

TLE

AtualizadoSource: Space-Track

Época: Sep 14, 2026, 13:14 UTC

1 24953U 97052A   26257.55168295  .00000033  00000-0  16501-4 0  9992
2 24953  82.9185 280.2010 0040927  73.1563  90.5013 13.79830382458692

Acompanhe COSMOS 2346 em tempo real com AllMySat

Download on the App Store